SDA_1678 (65988 NORAD) Tracking and Keplerian Element Data

This shows tracking and keplerian element data for the satellite.

Feedback or suggestion? Click here.




ElementValue
Catalog65988
NameSDA_1678
Epoch Orbit903
Epoch Day354.14377583
Epoch Year2025
RAAN17.693
Inclination81.3021
Eccentricity0.0003741
Argument of Perigee2.878
Mean Anonmoly357.2398
Mean Motion13.85520888
Decay Rate1.8E-06
L11 65988U 25230Q 25354.14377583 .00000180 00000+0 14784-3 0 9990
L22 65988 81.3021 17.6930 0003741 2.8780 357.2398 13.85520888 9036



Live tracking and technical data element details for SDA_1678 (NORAD 65988). SDA_1678 can be tracked NOW for your location showing map with azimuth and elevation plus other details from your city location.







IsCatalogInMostPopularTable: catalog: 65988, numindb: 3
Update: records affected: 1



GetName: 65988 SDA_1678

Hit Count: updated at: Tue, 21 Apr 2026 20:07:59 GMT